Weather in Kitwe-Nkana

Zambia     12°49′00″S   28°12′48″E
temp.,
°C
wind,
m/s
gust,
m/s
humid.,
%
clouds,
%
prec.,
mm/h
press.,
hPa
HPBL,
m
27 october, wed
wed2723:00+26e4122917 0.0 1012591
02:00+22nne234155 0.0 1013139
05:00+21e295678 0.0 1015518
08:00+26e510425 0.0 10161372
11:00+33e45255 0.0 10122861
14:00+32se352293 0.0 10083071
17:00+23se61258100 0.4 1012605
20:00+24ese3104158 0.4 1011318
28 october, thu
thu2823:00+24ese4114781 0.0 1013855
02:00+20ese312652 0.0 1013556
05:00+19ese311715 0.0 1014572
08:00+24e59515 0.0 10161168
11:00+31e45309 0.0 10122494
14:00+32ese3425100 0.0 10082866
17:00+29sse67347 0.0 10081175
20:00+24se310480 0.0 1011512
29 october, fri
fri2923:00+21e27570 0.0 1013240
02:00+19e25664 0.0 1011134
05:00+18ne28695 0.0 1013200
08:00+25e47455 0.0 1014924
11:00+32e33277 0.0 10102130
14:00+35ssw33187 0.0 10053784
17:00+33ssw231975 0.0 10041497
20:00+27se372683 0.0 1007176
30 october, sat
sat3023:00+24ese310345 0.0 1009329
02:00+22ese39425 0.0 1008255
05:00+18ne235164 0.0 101170
08:00+26ene47305 0.0 1011683
11:00+34ene231793 0.0 10082496
14:00+37ssw241423 0.0 10044131
17:00+35ssw241340 0.0 10023802
20:00+28se3726100 0.0 1005149
31 october, sun
sun3123:00+25se262934 0.0 1008134
02:00+22ne2634100 0.0 1008145
05:00+22ene393394 0.0 1009207
08:00+29nne242391 0.0 1011979
11:00+35ene231614 0.0 10082927
14:00+38nw131393 0.0 10044078
17:00+34n221629 0.0 10031725
20:00+28se3102899 0.0 1007280